Weather History for Hutchinson, MN

Change the Weather History Date:

Saturday, March 23, 2013

  Actual Average Record
Temperature  
Mean Temperature 16 °F -  
Max Temperature 29 °F 42 °F 69 °F (1959)
Min Temperature 4 °F 23 °F -9 °F (1965)
Degree Days  
Heating Degree Days 48    
Moisture  
Dew Point 14 °F    
Average Humidity 81    
Maximum Humidity 95    
Minimum Humidity 64    
Precipitation  
Precipitation 0.00 in - - ()
Sea Level Pressure  
Sea Level Pressure 30.12 in    
Wind  
Wind Speed 4 mph (WNW)    
Max Wind Speed 13 mph    
Max Gust Speed -    
Visibility 10 miles    
Events      
Averages and records for this station are not official NWS values.
T = Trace of Precipitation, MM = Missing Value Source: NWS Daily Summary

Daily Weather History Graph

Daily Weather History Graph

Search for Another Location

Airport:

Trip Planner

Search our weather history database for the weather conditions in past years. The results will help you decide how hot, cold, wet, or windy it might be!

Date:

Astronomy

Mar. 23, 2013 Rise Set
Actual Time 7:14 AM CDT 7:34 PM CDT
Civil Twilight 6:45 AM CDT 8:03 PM CDT
Nautical Twilight 6:10 AM CDT 8:38 PM CDT
Astronomical Twilight 5:35 AM CDT 9:13 PM CDT
Moon 3:54 PM CDT (3/23) 5:00 AM CDT (3/23)
Length of Visible Light 13h 18m
Length of Day
12h 19m
Waxing Gibbous, 85% of the Moon is Illuminated
Mar 23
Waxing Gibbous
Mar 27
Full
Apr 2
Last Quarter
Apr 10
New
Apr 18
First Quarter

Hourly Weather History & Observations

Time (CDT) Temp. Windchill Dew Point Humidity Pressure Visibility Wind Dir Wind Speed Gust Speed Precip Events Conditions
12:14 AM 19.2 °F 14.1 °F 14.2 °F 81% 30.10 in 10.0 mi NW 3.5 mph - N/A   Clear
12:34 AM 18.7 °F - 14.4 °F 83% 30.09 in 10.0 mi Calm Calm - N/A   Clear
12:53 AM 14.5 °F - 11.7 °F 88% 30.08 in 10.0 mi Calm Calm - N/A   Clear
1:14 AM 14.0 °F - 10.8 °F 87% 30.07 in 10.0 mi Calm Calm - N/A   Clear
1:34 AM 13.3 °F - 10.2 °F 88% 30.08 in 10.0 mi Calm Calm - N/A   Clear
1:54 AM 10.0 °F 3.6 °F 7.5 °F 90% 30.09 in 10.0 mi WNW 3.5 mph - N/A   Clear
2:14 AM 11.3 °F 5.1 °F 9.1 °F 91% 30.09 in 10.0 mi NW 3.5 mph - N/A   Clear
2:34 AM 10.9 °F 4.7 °F 8.4 °F 90% 30.08 in 10.0 mi NNW 3.5 mph - N/A   Clear
2:54 AM 11.1 °F - 9.3 °F 92% 30.09 in 10.0 mi Calm Calm - N/A   Clear
3:14 AM 8.4 °F -0.1 °F 7.2 °F 95% 30.10 in 10.0 mi West 4.6 mph - N/A   Clear
3:34 AM 5.7 °F -3.2 °F 2.8 °F 88% 30.10 in 10.0 mi West 4.6 mph - N/A   Clear
3:54 AM 7.9 °F -2.2 °F 5.9 °F 92% 30.11 in 10.0 mi West 5.8 mph - N/A   Clear
4:13 AM 9.5 °F -1.5 °F 7.5 °F 92% 30.13 in 10.0 mi WSW 6.9 mph - N/A   Clear
4:34 AM 9.0 °F -0.9 °F 6.6 °F 90% 30.12 in 10.0 mi WSW 5.8 mph - N/A   Clear
4:54 AM 7.0 °F 0.1 °F 5.0 °F 92% 30.12 in 10.0 mi West 3.5 mph - N/A   Clear
5:14 AM 8.2 °F - 6.3 °F 92% 30.13 in 10.0 mi Calm Calm - N/A   Scattered Clouds
5:33 AM 8.1 °F 1.4 °F 6.1 °F 92% 30.13 in 10.0 mi West 3.5 mph - N/A   Scattered Clouds
5:54 AM 6.8 °F -0.1 °F 4.8 °F 92% 30.12 in 10.0 mi West 3.5 mph - N/A   Clear
6:14 AM 5.2 °F -1.9 °F 2.3 °F 88% 30.11 in 10.0 mi NNW 3.5 mph - N/A   Clear
6:34 AM 5.2 °F -3.8 °F 3.4 °F 92% 30.10 in 7.0 mi NW 4.6 mph - N/A   Clear
6:54 AM 5.4 °F - 3.2 °F 91% 30.11 in 10.0 mi Calm Calm - N/A   Clear
7:14 AM 4.3 °F -4.9 °F 1.9 °F 90% 30.12 in 7.0 mi West 4.6 mph - N/A   Clear
7:34 AM 5.9 °F -3.0 °F 3.9 °F 92% 30.14 in 7.0 mi WSW 4.6 mph - N/A   Clear
7:54 AM 5.7 °F -1.3 °F 3.2 °F 89% 30.14 in 10.0 mi West 3.5 mph - N/A   Clear
8:13 AM 6.4 °F -2.4 °F 3.9 °F 89% 30.14 in 7.0 mi West 4.6 mph - N/A   Clear
8:34 AM 7.0 °F 0.1 °F 4.1 °F 88% 30.14 in 10.0 mi West 3.5 mph - N/A   Clear
8:54 AM 8.4 °F -1.6 °F 5.7 °F 89% 30.15 in 10.0 mi West 5.8 mph - N/A   Clear
9:14 AM 10.2 °F 0.6 °F 7.5 °F 89% 30.14 in 10.0 mi WNW 5.8 mph - N/A   Clear
9:34 AM 12.4 °F 6.3 °F 9.0 °F 86% 30.14 in 10.0 mi WNW 3.5 mph - N/A   Clear
9:54 AM 14.2 °F 6.7 °F 9.3 °F 81% 30.15 in 10.0 mi WNW 4.6 mph - N/A   Clear
10:14 AM 16.3 °F 10.8 °F 10.2 °F 77% 30.15 in 10.0 mi WNW 3.5 mph - N/A   Clear
10:34 AM 18.5 °F 13.3 °F 10.9 °F 72% 30.14 in 10.0 mi WNW 3.5 mph - N/A   Clear
10:54 AM 21.0 °F 13.4 °F 12.0 °F 68% 30.14 in 10.0 mi WNW 5.8 mph - N/A   Clear
11:14 AM 21.7 °F 15.5 °F 13.5 °F 70% 30.15 in 10.0 mi West 4.6 mph - N/A   Clear
11:33 AM 22.8 °F 15.5 °F 13.8 °F 68% 30.16 in 10.0 mi West 5.8 mph - N/A   Clear
11:54 AM 23.5 °F 16.4 °F 15.1 °F 70% 30.16 in 10.0 mi WSW 5.8 mph - N/A   Clear
12:14 PM 24.4 °F 18.6 °F 15.4 °F 69% 30.16 in 10.0 mi West 4.6 mph - N/A   Clear
12:34 PM 25.5 °F 19.9 °F 16.5 °F 69% 30.15 in 10.0 mi West 4.6 mph - N/A   Clear
12:53 PM 27.0 °F 20.5 °F 17.2 °F 67% 30.14 in 10.0 mi WNW 5.8 mph - N/A   Clear
1:14 PM 27.9 °F 22.6 °F 18.1 °F 67% 30.14 in 10.0 mi West 4.6 mph - N/A   Clear
1:34 PM 28.4 °F 21.2 °F 18.0 °F 65% 30.14 in 10.0 mi West 6.9 mph - N/A   Clear
1:54 PM 29.3 °F 22.3 °F 18.3 °F 64% 30.14 in 10.0 mi West 6.9 mph - N/A   Clear
2:14 PM 29.3 °F 22.3 °F 18.9 °F 65% 30.13 in 10.0 mi West 6.9 mph - N/A   Clear
2:34 PM 29.3 °F 22.3 °F 19.4 °F 67% 30.12 in 10.0 mi West 6.9 mph - N/A   Clear
2:54 PM 29.3 °F 21.5 °F 19.2 °F 66% 30.12 in 10.0 mi West 8.1 mph - N/A   Clear
3:14 PM 28.9 °F 21.1 °F 20.5 °F 71% 30.12 in 10.0 mi West 8.1 mph - N/A   Clear
3:34 PM 28.4 °F 20.4 °F 20.3 °F 72% 30.11 in 10.0 mi West 8.1 mph - N/A   Clear
3:54 PM 28.4 °F 19.7 °F 20.1 °F 71% 30.11 in 10.0 mi West 9.2 mph - N/A   Scattered Clouds
4:13 PM 28.4 °F 20.4 °F 20.5 °F 72% 30.12 in 10.0 mi West 8.1 mph - N/A   Clear
4:24 PM 28.4 °F 20.4 °F 20.5 °F 72% 30.12 in 10.0 mi WSW 8.1 mph - N/A   Clear
4:45 PM 28.4 °F 19.7 °F 21.2 °F 74% 30.12 in 10.0 mi West 9.2 mph - N/A   Scattered Clouds
5:05 PM 28.4 °F 19.7 °F 21.2 °F 74% 30.11 in 10.0 mi West 9.2 mph - N/A   Scattered Clouds
5:25 PM 28.4 °F 18.0 °F 21.2 °F 74% 30.12 in 10.0 mi West 12.7 mph - N/A   Scattered Clouds
5:45 PM 26.6 °F 16.2 °F 21.2 °F 80% 30.12 in 10.0 mi West 11.5 mph - N/A   Scattered Clouds
6:05 PM 26.6 °F 16.8 °F 21.2 °F 80% 30.12 in 10.0 mi West 10.4 mph - N/A   Clear
6:25 PM 26.6 °F 17.5 °F 19.4 °F 74% 30.12 in 10.0 mi West 9.2 mph - N/A   Clear
7:05 PM 24.8 °F 16.1 °F 19.4 °F 80% 30.12 in 10.0 mi WNW 8.1 mph - N/A   Clear
7:25 PM 24.8 °F 16.9 °F 19.4 °F 80% 30.13 in 10.0 mi WNW 6.9 mph - N/A   Scattered Clouds
7:45 PM 24.8 °F 16.1 °F 19.4 °F 80% 30.13 in 10.0 mi WNW 8.1 mph - N/A   Mostly Cloudy
8:05 PM 24.8 °F 15.3 °F 19.4 °F 80% 30.13 in 10.0 mi NW 9.2 mph - N/A   Overcast
8:25 PM 24.8 °F 14.6 °F 19.4 °F 80% 30.13 in 10.0 mi NW 10.4 mph - N/A   Overcast
8:45 PM 24.8 °F 15.3 °F 19.4 °F 80% 30.13 in 10.0 mi NW 9.2 mph - N/A   Overcast
9:05 PM 24.8 °F 16.9 °F 19.4 °F 80% 30.13 in 10.0 mi NW 6.9 mph - N/A   Overcast
9:25 PM 24.8 °F 16.9 °F 19.4 °F 80% 30.13 in 10.0 mi WNW 6.9 mph - N/A   Overcast
9:49 PM 24.4 °F 15.6 °F 19.4 °F 81% 30.13 in 10.0 mi WNW 8.1 mph - N/A   Overcast
9:53 PM 24.4 °F 16.5 °F 19.4 °F 81% 30.13 in 10.0 mi WNW 6.9 mph - N/A   Overcast
10:14 PM 24.3 °F 16.3 °F 19.2 °F 81% 30.13 in 10.0 mi WNW 6.9 mph - N/A   Overcast
10:34 PM 23.9 °F 15.8 °F 19.0 °F 82% 30.13 in 10.0 mi WNW 6.9 mph - N/A   Overcast
10:54 PM 23.7 °F 15.6 °F 18.9 °F 82% 30.13 in 10.0 mi WNW 6.9 mph - N/A   Overcast
11:14 PM 23.7 °F 16.6 °F 18.5 °F 80% 30.13 in 10.0 mi WNW 5.8 mph - N/A   Overcast
11:33 PM 23.5 °F 14.5 °F 18.9 °F 82% 30.12 in 10.0 mi NW 8.1 mph - N/A   Overcast
11:54 PM 23.2 °F 13.3 °F 18.3 °F 82% 30.12 in 10.0 mi WNW 9.2 mph - N/A   Overcast